Regional Weather Roundup
Issued by NWS Cleveland, OH

Home | Current Version | Previous Version | Text Only | Print | Product List | Glossary Off
Versions: 1 2 3 4 5 6 7 8 9 10 11 12 13 14 15 16 17 18 19 20 21 22 23 24 25 26 27 28 29 30 31 32 33 34 35 36 37 38 39 40 41 42 43 44 45 46 47 48 49 50

446
ASUS41 KCLE 191200
RWRCLE
OHIO REGIONAL WEATHER ROUNDUP
NATIONAL WEATHER SERVICE WILMINGTON, OH
800 AM EDT TUE SEP 19 2017

NOTE: "FAIR" INDICATES FEW OR NO CLOUDS BELOW 12,000 FEET WITH NO
SIGNIFICANT WEATHER AND/OR OBSTRUCTIONS TO VISIBILITY.

OHZ001>008-015>018-024>027-034-035-043-044-191300-
   NORTHWEST OHIO

CITY           SKY/WX    TMP DP  RH WIND       PRES   REMARKS
DEFIANCE       CLOUDY    67  65  93 E6        29.96S FOG
FINDLAY        CLOUDY    68  64  87 SE7       29.96S FOG
TOLEDO EXPRESS CLOUDY    65  32  29 NE3       29.98R FOG
TOLEDO EXEC    CLOUDY    67  66  97 NE6       29.99R FOG
LIMA           CLOUDY    68  65  90 SE8       29.97R
$$

OHZ009>014-019>023-028>033-038-089-191300-
   NORTHEAST OHIO

CITY           SKY/WX    TMP DP  RH WIND       PRES   REMARKS
CLE-HOPKINS    CLOUDY    72  62  71 CALM      30.01S
CLE-LAKEFRONT  FAIR      70  61  73 SE10      29.98S
CUY CO. ARPT   MOCLDY    70  63  78 SE10      30.01S
LORAIN-ELYRIA  CLOUDY    66  59  78 S5        30.00S
ASHTABULA      FAIR      65  64  97 S7        30.04R
AKRON-CANTON   FAIR      65  60  84 SE3       30.02S
WOOSTER        NOT AVBL
MANSFIELD      CLOUDY    69  63  81 SE7       30.01S
YOUNGSTOWN     CLOUDY    63  63 100 SE8       30.04R FOG
$$

OHZ042-051>053-060>062-070>072-077>081-191300-
  SOUTHWEST OHIO

CITY           SKY/WX    TMP DP  RH WIND       PRES   REMARKS
CINC-COVINGTON CLOUDY    70  67  90 S7        29.98R
CINC-LUNKEN    FAIR      68  67  96 CALM      29.98R
HAMILTON       FAIR      70  66  87 CALM      29.98R
DAYTON         NOT AVBL
WRIGHT-PAT AFB CLOUDY    67  67 100 CALM      29.98R
DAYTON GENERAL FAIR      69  64  84 S6        29.97S
WILMINGTON     MOCLDY    67  64  90 SE3       29.99R
$$

OHZ036-037-039>041-045>050-054>059-063>069-073>076-082>088-191300-
  CENTRAL AND SOUTHEAST OHIO

CITY           SKY/WX    TMP DP  RH WIND       PRES   REMARKS
COLUMBUS       CLOUDY    70  66  87 CALM      29.99S
OSU AIRPORT    MOCLDY    68  67  96 CALM      29.99S
BOLTON FIELD   MOCLDY    66  64  94 CALM      30.00S
RICKENBACK AFB NOT AVBL
NEWARK         FAIR      67  64  90 CALM      30.00S
MARION         CLOUDY    68  63  84 S6        30.00R
LANCASTER      FAIR      68  66  93 SE5       30.00S
ZANESVILLE     CLOUDY    62  59  90 CALM      30.02R
NEW PHILLY     MOCLDY    59  59 100 CALM      30.03R FOG
$$




USA.gov is the U.S. government's official web portal to all federal, state and local government web resources and services.